#timestamp,LO_Frequency,Hit 
1500116415.4,286046636.3,N
1500116435.3,286046636.1,N
1500116455.1,286046637.6,N
1500116475.8,286046636.6,N
1500116495.7,286046638.8,N
1500116515.5,286046635.5,N
1500116535.3,286046636.4,N
1500116555.2,286046635.3,N
1500116575.0,286046633.8,N
1500116575.9,286046633.8,N
1500116595.7,286046636.7,N
1500116615.6,286046635.0,N
1500116635.4,286046634.8,N
1500116655.2,286046635.9,N
1500116675.1,286046636.0,N
1500116676.0,286046636.0,N
1500116695.8,286046632.0,N
1500116715.6,286046631.6,N
1500116735.5,286046632.8,N
1500116755.3,286046634.5,N
1500116775.1,286046633.0,N
1500116795.9,286046634.5,N
1500116815.7,286046632.9,N
1500116835.5,286046636.4,N
1500116855.4,286046635.1,N
1500116875.2,286046633.8,N
1500116895.0,286046634.7,N
1500116895.9,286046634.7,N
1500116915.8,286046634.7,N
1500116935.6,286046633.4,N
1500116955.4,286046633.7,N
1500116975.3,286046637.3,N
1500116995.1,286046637.9,N
1500116996.0,286046637.9,N
1500117015.8,286046635.4,N
1500117035.7,286046637.5,N
1500117055.5,286046634.7,N
1500117075.3,286046632.3,N
1500117095.2,286046630.1,N
1500117115.9,286046634.8,N
1500117135.7,286046633.2,N
1500117155.6,286046631.3,N
1500117175.4,286046634.4,N
1500117195.2,286046633.2,N
1500117215.0,286046631.1,N
1500117216.0,286046631.1,N
1500117235.8,286046628.9,N
1500117255.6,286046631.6,N
1500117275.4,286046630.0,N
1500117295.3,286046627.9,N
1500117315.1,286046625.3,N
1500117335.8,286046629.0,N
1500117355.7,286046629.6,N
1500117375.5,286046627.7,N
1500117395.3,286046625.5,N
1500117415.2,286046627.2,N
1500117435.9,286046628.4,N
1500117455.7,286046628.0,N
1500117475.6,286046628.8,N
1500117495.4,286046628.4,N
1500117515.2,286046622.8,N
1500117535.1,286046620.7,N
1500117536.0,286046620.7,N
1500117555.8,286046625.6,N
1500117575.6,286046622.5,N
1500117595.4,286046621.7,N
1500117615.3,286046620.9,N
1500117635.1,286046621.8,N
1500117655.8,286046620.2,N
1500117675.7,286046620.9,N
1500117695.5,286046628.2,N
1500117715.3,286046630.3,N
1500117735.2,286046634.3,N
1500117755.9,286046636.4,N
1500117775.7,286046634.0,N
1500117795.6,286046636.0,N
1500117815.4,286046637.2,N
1500117835.3,286046638.7,N
1500117855.1,286046640.7,N
1500117875.9,286046639.4,N
1500117895.7,286046637.2,N
1500117915.5,286046636.1,N
1500117935.4,286046635.5,N
1500117955.2,286046640.2,N
1500117975.1,286046647.2,N
1500117976.0,286046647.2,N
1500117995.8,286046645.9,N
1500118015.6,286046643.5,N
1500118035.5,286046644.3,N
1500118055.3,286046652.0,N
1500118075.1,286046659.9,N
1500118095.9,286046657.8,N
1500118115.7,286046652.7,N
1500118135.5,286046651.1,N
1500118155.4,286046650.4,N
1500118175.2,286046647.9,N
1500118195.0,286046648.5,N
1500118195.9,286046648.5,N
1500118215.8,286046651.2,N
1500118235.6,286046653.1,N
1500118255.4,286046653.5,N
1500118275.3,286046651.1,N
1500118295.1,286046650.9,N
1500118296.0,286046650.9,N
1500118315.8,286046649.3,N
1500118335.7,286046651.6,N
1500118355.5,286046651.9,N
1500118375.3,286046652.4,N
1500118395.2,286046653.4,N
1500118415.9,286046650.1,N
1500118435.7,286046650.2,N
1500118455.5,286046651.7,N
1500118475.4,286046652.0,N
1500118495.2,286046649.7,N
1500118515.0,286046649.0,N
1500118515.9,286046649.0,N
1500118535.8,286046647.9,N
1500118555.6,286046658.7,N
1500118575.4,286046659.7,N
1500118595.3,286046664.4,N
1500118615.1,286046669.3,N
1500118616.0,286046669.3,N
1500118635.8,286046668.8,N
1500118655.7,286046665.7,N
1500118675.5,286046669.8,N
1500118695.3,286046670.0,N
1500118715.2,286046677.4,N
1500118735.9,286046690.1,N
1500118755.7,286046700.0,N
1500118775.6,286046694.4,N
1500118795.4,286046694.7,N
1500118815.2,286046701.0,N
1500118835.1,286046697.3,N
1500118836.0,286046697.3,N
1500118855.8,286046693.7,N
1500118875.6,286046689.6,N
1500118895.5,286046682.9,N
1500118915.3,286046678.5,N
1500118935.1,286046675.9,N
1500118955.8,286046670.5,N
1500118975.7,286046669.9,N
1500118995.5,286046663.7,N
1500119015.3,286046666.2,N
1500119035.2,286046664.7,N
1500119055.0,286046662.9,N
1500119055.9,286046662.9,N
1500119075.7,286046663.1,N
1500119095.6,286046659.4,N
1500119115.4,286046661.3,N
1500119135.2,286046659.8,N
1500119155.1,286046655.9,N
1500119156.0,286046655.9,N
1500119175.8,286046654.8,N
1500119195.6,286046653.9,N
1500119215.5,286046649.4,N
1500119235.3,286046660.7,N
1500119255.1,286046676.3,N
1500119275.9,286046676.9,N
1500119295.7,286046689.4,N
1500119315.5,286046706.1,N
1500119335.4,286046710.8,N
1500119355.2,286046718.1,N
1500119375.0,286046729.4,N
1500119375.9,286046729.4,N
1500119395.8,286046749.9,N
1500119415.6,286046746.3,N
1500119435.4,286046741.4,N
1500119455.2,286046744.2,N
1500119475.1,286046737.4,N
1500119476.0,286046737.4,N
1500119495.8,286046730.8,N
1500119515.6,286046725.4,N
1500119535.5,286046723.7,N
1500119555.3,286046718.0,N
1500119575.1,286046711.0,N
1500119595.9,286046707.7,N
1500119615.7,286046710.0,N
1500119635.5,286046708.4,N
1500119655.4,286046708.2,N
1500119675.2,286046702.7,N
1500119695.0,286046702.1,N
1500119695.9,286046702.1,N
1500119715.8,286046701.4,N
1500119735.6,286046704.3,N
1500119755.4,286046708.8,N
1500119775.3,286046709.2,N
1500119795.1,286046708.4,N
1500119796.0,286046708.4,N
1500119815.8,286046704.3,N
1500119835.7,286046702.6,N
1500119855.5,286046698.5,N
1500119875.3,286046693.2,N
1500119895.1,286046691.1,N
1500119915.9,286046690.9,N
1500119935.7,286046700.7,N
1500119955.5,286046700.7,N
1500119975.4,286046702.0,N
1500119995.2,286046701.4,N
